Location: Monroe
(41.3286°N, 74.1872°W)
Time: 01:57:05
(UTC+00:00)

Hubble Space Telescope - Pass Details

Date: 26 January 2026
Orbit: 477 x 479 km, 28.5° (Epoch: 14 February)

Event Time Altitude Azimuth Distance (km) Brightness Sun altitude
Rises 23:46:03 0° 232° (SW) 2,512 5.2 -18.8°
Reaches altitude 10° 23:49:33 10° 198° (SSW) 1,636 3.5 -19.5°
Maximum altitude 23:50:51 12° 178° (S) 1,544 3.2 -19.7°
Enters shadow 23:51:45 11° 163° (SSE) 1,589 3.1 -19.9°
